EW8081 Weather Reports


Display with metric or nautical units.
time (UTC)temp
F
wind
direction
speed
MPH
gust
MPH
rain 1hr
in
rain 24hr
in
rain mn
in
humidity
%
barometer
mb
20260903090036 70 310 4.0 10.0 0.00 0.00 0.00 44 1014.2
20260903084533 70 300 6.0 14.0 0.00 0.00 0.00 42 1013.6
20260903083032 71 306 5.0 15.0 0.00 0.00 0.00 41 1013.3
20260903081529 71 292 5.0 14.0 0.00 0.00 0.00 40 1012.8
20260903080028 72 360 4.0 12.0 0.00 0.00 0.00 40 1012.5
20260903074527 72 307 3.0 10.0 0.00 0.00 0.00 38 1012.5
20260903073038 73 332 3.0 10.0 0.00 0.00 0.00 38 1012.3
20260903071523 75 334 3.0 9.0 0.00 0.00 0.00 35 1011.9
20260903070022 77 303 5.0 13.0 0.00 0.00 0.00 28 1011.7
20260903064525 81 287 3.0 13.0 0.00 0.00 0.00 26 1011.4
20260903063019 83 276 5.0 12.0 0.00 0.00 0.00 24 1010.9
20260903061522 83 335 4.0 14.0 0.00 0.00 0.00 25 1010.7
20260903060018 84 284 8.0 14.0 0.00 0.00 0.00 26 1010.5
20260903054517 84 294 6.0 14.0 0.00 0.00 0.00 27 1010.1
20260903053016 83 341 8.0 17.0 0.00 0.00 0.00 26 1010.0
20260903051616 84 331 9.0 14.0 0.00 0.00 0.00 27 1009.9
20260903050015 85 293 6.0 16.0 0.00 0.00 0.00 26 1009.9
20260903044514 85 324 3.0 18.0 0.00 0.00 0.00 27 1009.7
20260903043013 84 321 10.0 24.0 0.00 0.00 0.00 26 1009.4
20260903041511 85 281 9.0 19.0 0.00 0.00 0.00 27 1009.1
20260903040010 86 293 6.0 19.0 0.00 0.00 0.00 29 1008.9
20260903034518 86 328 6.0 16.0 0.00 0.00 0.00 28 1008.9
20260903033009 86 311 9.0 17.0 0.00 0.00 0.00 30 1008.8
20260903031507 86 321 4.0 13.0 0.00 0.00 0.00 29 1008.9
20260903030005 86 267 4.0 11.0 0.00 0.00 0.00 30 1008.7
20260903024502 85 289 6.0 16.0 0.00 0.00 0.00 31 1008.8
20260903023106 84 284 7.0 18.0 0.00 0.00 0.00 31 1008.9
20260903021558 85 295 5.0 13.0 0.00 0.00 0.00 31 1009.0
20260903020057 84 304 8.0 18.0 0.00 0.00 0.00 32 1009.0
20260903014558 84 268 6.0 14.0 0.00 0.00 0.00 32 1009.1
20260903013053 84 338 9.0 21.0 0.00 0.00 0.00 30 1008.9
20260903011550 83 10 9.0 19.0 0.00 0.00 0.00 31 1008.9
20260903010046 83 329 8.0 18.0 0.00 0.00 0.00 32 1008.7
20260903004547 83 291 9.0 16.0 0.00 0.00 0.00 31 1008.6
20260903003040 82 322 12.0 23.0 0.00 0.00 0.00 32 1008.7
20260903001539 82 360 12.0 21.0 0.00 0.00 0.00 34 1008.5
20260903000043 81 317 10.0 20.0 0.00 0.00 0.00 36 1008.5
20260902234536 82 284 9.0 16.0 0.00 0.00 0.00 35 1008.6
20260902233033 81 307 8.0 15.0 0.00 0.00 0.00 36 1008.3
20260902231529 80 305 5.0 16.0 0.00 0.00 0.00 38 1008.3
20260902230025 78 360 6.0 16.0 0.00 0.00 0.00 40 1008.4
20260902224522 76 343 3.0 12.0 0.00 0.00 0.00 44 1008.2
20260902223030 73 23 5.0 13.0 0.00 0.00 0.00 48 1008.2
20260902221519 72 320 4.0 13.0 0.00 0.00 0.00 50 1008.3
20260902220013 71 50 4.0 10.0 0.00 0.00 0.00 50 1008.5
20260902214509 69 5 4.0 10.0 0.00 0.00 0.00 54 1008.3
20260902213008 68 360 4.0 12.0 0.00 0.00 0.00 55 1008.3
20260902211513 65 347 3.0 8.0 0.00 0.00 0.00 60 1008.2
20260902210007 65 25 2.0 5.0 0.00 0.00 0.00 72 1008.0
20260902204505 66 56 1.0 4.0 0.00 0.00 0.00 67 1008.0
20260902203004 66 33 0.0 11.0 0.00 0.00 0.00 61 1008.3
20260902201502 66 58 2.0 8.0 0.00 0.00 0.00 63 1008.4
20260902194559 67 38 3.0 8.0 0.00 0.00 0.00 56 1008.6
20260902193058 66 348 2.0 6.0 0.00 0.00 0.00 58 1008.7
20260902191557 67 349 2.0 5.0 0.00 0.00 0.00 59 1009.4
20260902190059 67 314 3.0 9.0 0.00 0.00 0.00 59 1009.7
20260902184555 67 329 4.0 9.0 0.00 0.00 0.00 59 1009.7
20260902183108 68 287 4.0 11.0 0.00 0.00 0.00 55 1010.1
20260902181602 68 340 1.0 5.0 0.00 0.00 0.00 52 1008.8
20260902180054 68 19 2.0 4.0 0.00 0.00 0.00 52 1008.8
20260902174557 69 347 3.0 10.0 0.00 0.00 0.00 51 1008.9
20260902173058 69 329 5.0 10.0 0.00 0.00 0.00 51 1009.4
20260902171548 69 343 6.0 13.0 0.00 0.00 0.00 51 1009.5
20260902170051 69 297 5.0 13.0 0.00 0.00 0.00 52 1009.6
20260902164547 69 351 5.0 13.0 0.00 0.00 0.00 52 1009.9
20260902163044 69 301 5.0 13.0 0.00 0.00 0.00 53 1010.3
20260902161541 68 345 6.0 14.0 0.00 0.00 0.00 53 1010.2
20260902160038 68 339 5.0 14.0 0.00 0.00 0.00 55 1010.5
20260902154538 68 314 4.0 11.0 0.00 0.00 0.00 56 1010.6
20260902153033 68 335 5.0 12.0 0.00 0.00 0.00 57 1010.9
20260902151534 66 334 3.0 9.0 0.00 0.00 0.00 57 1011.0
20260902150028 66 355 3.0 6.0 0.00 0.00 0.00 57 1011.2
20260902144526 66 328 4.0 8.0 0.00 0.00 0.00 57 1011.5
20260902143024 65 356 4.0 9.0 0.00 0.00 0.00 57 1011.4
20260902141520 64 340 3.0 8.0 0.00 0.00 0.00 61 1011.8
20260902140016 63 10 3.0 6.0 0.00 0.00 0.00 61 1011.9
20260902134516 63 340 2.0 4.0 0.00 0.00 0.00 60 1012.0
20260902133015 64 347 3.0 5.0 0.00 0.00 0.00 59 1012.0
20260902131515 64 330 2.0 6.0 0.00 0.00 0.00 60 1012.4
20260902130014 65 322 2.0 5.0 0.00 0.00 0.00 59 1012.4
20260902124514 65 345 2.0 6.0 0.00 0.00 0.00 59 1012.6
20260902123012 65 341 2.0 4.0 0.00 0.00 0.00 59 1012.7
20260902121512 66 336 2.0 4.0 0.00 0.00 0.00 57 1012.8
20260902120011 66 335 2.0 5.0 0.00 0.00 0.00 55 1012.9
20260902114511 67 336 1.0 3.0 0.00 0.00 0.00 55 1013.1
20260902113011 68 322 1.0 3.0 0.00 0.00 0.00 53 1013.1
20260902111511 70 319 0.0 4.0 0.00 0.00 0.00 49 1013.1
20260902110028 71 321 3.0 8.0 0.00 0.00 0.00 47 1013.1
20260902104515 71 299 4.0 9.0 0.00 0.00 0.00 46 1013.1
20260902103011 72 317 3.0 6.0 0.00 0.00 0.00 45 1013.1
20260902101507 72 303 4.0 9.0 0.00 0.00 0.00 44 1013.0
20260902100009 73 303 6.0 10.0 0.00 0.00 0.00 41 1012.9
20260902094508 73 304 8.0 15.0 0.00 0.00 0.00 41 1012.7
20260902093005 73 313 6.0 11.0 0.00 0.00 0.00 41 1012.8
20260902091505 73 312 6.0 12.0 0.00 0.00 0.00 42 1012.6